Terug naar catalogus

STARLINK-37516

ActiefCommunicatieSSO
NORAD 68915·PAYLOAD·🇺🇸 United States

Gelanceerd Apr 30, 2026 vanaf Vandenberg Space Force Base

Loading…

Volgende Passages (komende 24 uur)

TLE

VersSource: CelesTrak SupGP

Epoch: Sep 14, 2026, 22:41 UTC

1 68915C 26097W   26257.94562500  .00085875  00000+0  26659-2 0  2575
2 68915  97.2851  92.2348 0001948  96.6757 315.2873 15.33393023    15

Volg STARLINK-37516 in realtime met AllMySat

Download on the App Store